Ketchikan, AK

4:20 PM AKST on February 20, 2019 (GMT -0900)
Ketchikan International

Weather History for PAKT - January, 2019

Change the Weather History Date:

Monday, January 28, 2019

  Actual Average Record
Temperature  
Mean Temperature 36 °F -  
Max Temperature 42 °F 39 °F 49 °F (1958)
Min Temperature 30 °F 28 °F 3 °F (2008)
Degree Days  
Heating Degree Days 29    
Moisture  
Dew Point 32 °F    
Average Humidity 87    
Maximum Humidity 93    
Minimum Humidity 70    
Precipitation  
Precipitation 0.00 in - - ()
Sea Level Pressure  
Sea Level Pressure 30.36 in    
Wind  
Wind Speed 3 mph (NW)    
Max Wind Speed 8 mph    
Max Gust Speed -    
Visibility 10 miles    
Events      
Averages and records for this station are not official NWS values.
T = Trace of Precipitation, MM = Missing Value Source: NWS Daily Summary

Daily Weather History Graph

Daily Weather History Graph

Search for Another Location

Airport or City:

Astronomy

Jan. 28, 2019 Rise Set
Actual Time 7:46 AM AKST 4:14 PM AKST
Civil Twilight 7:05 AM AKST 4:55 PM AKST
Nautical Twilight 6:20 AM AKST 5:39 PM AKST
Astronomical Twilight 5:37 AM AKST 6:22 PM AKST
Moon 1:21 AM AKST (1/28) 11:12 AM AKST (1/28)
Length of Visible Light 9h 50m
Length of Day
8h 28m
Last Quarter, 40% of the Moon is Illuminated
Jan 28
Last Quarter
Feb 4
New
Feb 12
First Quarter
Feb 19
Full
Feb 26
Last Quarter

Hourly Weather History & Observations

Time (AKST) Temp. Windchill Dew Point Humidity Pressure Visibility Wind Dir Wind Speed Gust Speed Precip Events Conditions
12:53 AM 36.0 °F - 34.0 °F 93% 30.45 in 10.0 mi Calm Calm - N/A   Overcast
1:53 AM 36.0 °F 32.1 °F 34.0 °F 93% 30.44 in 10.0 mi NW 4.6 mph - N/A   Overcast
2:53 AM 37.0 °F 31.6 °F 33.1 °F 86% 30.43 in 10.0 mi NW 6.9 mph - N/A   Overcast
3:53 AM 37.0 °F - 34.0 °F 89% 30.43 in 10.0 mi Calm Calm - N/A   Overcast
4:53 AM 36.0 °F 31.1 °F 33.1 °F 89% 30.42 in 10.0 mi WNW 5.8 mph - N/A   Scattered Clouds
5:53 AM 36.0 °F 31.1 °F 33.1 °F 89% 30.42 in 10.0 mi NW 5.8 mph - N/A   Clear
6:04 AM 36.0 °F 31.1 °F 33.1 °F 89% 30.41 in 10.0 mi NW 5.8 mph - N/A   Clear
6:53 AM 36.0 °F - 33.1 °F 89% 30.41 in 10.0 mi Calm Calm - N/A   Clear
7:53 AM 33.8 °F - 32.0 °F 93% 30.41 in 10.0 mi Calm Calm - N/A   Mostly Cloudy
8:53 AM 35.6 °F 31.7 °F 33.8 °F 93% 30.41 in 10.0 mi NW 4.6 mph - N/A   Clear
9:53 AM 37.0 °F - 34.0 °F 89% 30.40 in 10.0 mi Calm Calm - N/A   Clear
10:53 AM 39.9 °F - 34.0 °F 79% 30.40 in 10.0 mi Calm Calm - N/A   Partly Cloudy
11:53 AM 39.2 °F 37.0 °F 35.6 °F 87% 30.39 in 10.0 mi ESE 3.5 mph - N/A   Partly Cloudy
12:53 PM 42.8 °F 38.0 °F 35.6 °F 76% 30.38 in 10.0 mi SE 8.1 mph - N/A   Clear
1:53 PM 42.8 °F 38.6 °F 33.8 °F 70% 30.37 in 10.0 mi ESE 6.9 mph - N/A   Clear
2:53 PM 39.2 °F 35.9 °F 33.8 °F 81% 30.35 in 10.0 mi SE 4.6 mph - N/A   Clear
4:53 PM 35.6 °F - 30.2 °F 81% 30.31 in 10.0 mi Calm Calm - N/A   Scattered Clouds
5:53 PM 35.1 °F - 30.0 °F 82% 30.32 in 10.0 mi Calm Calm - N/A   Mostly Cloudy
6:53 PM 33.1 °F - 30.0 °F 89% 30.29 in 10.0 mi Calm Calm - N/A   Scattered Clouds
7:53 PM 32.0 °F - 28.9 °F 88% 30.28 in 10.0 mi Calm Calm - N/A   Clear
8:53 PM 32.0 °F - 30.0 °F 92% 30.27 in 10.0 mi Calm Calm - N/A   Clear
9:53 PM 30.9 °F - 28.9 °F 92% 30.26 in 10.0 mi Calm Calm - N/A   Clear
10:53 PM 32.0 °F 27.5 °F 30.0 °F 92% 30.24 in 10.0 mi SSE 4.6 mph - N/A   Clear
11:53 PM 30.0 °F - 28.0 °F 92% 30.23 in 10.0 mi Calm Calm - N/A   Clear